User: anonymous   Login
Location: Unspecified
(0.0000°N, 0.0000°E)
Time: 06:58:39
(UTC+00:00)
Language:

TATIANA 2 - Orbit

View from above orbital plane
View from above orbital plane
View from above satellite
View from above satellite

Ground track
Ground track

The orbit data is extracted from the following two-line orbital elements,

1 35868U 09049D   17202.80139063 +.00000011 +00000-0 +23466-4 0  9991
2 35868 098.4148 224.4852 0004940 041.1613 318.9938 14.22779157407159
Epoch (UTC): 21 July 2017 19:14:00
Eccentricity: 0.0004940
inclination: 98.4148°
perigee height: 812 km
apogee height: 819 km
right ascension of ascending node: 224.4852°
argument of perigee: 41.1613°
revolutions per day: 14.22779157
mean anomaly at epoch: 318.9938°
orbit number at epoch: 40715

The dashed part of the orbit path shows where the satellite is in the earth's shadow,  

DLR